When you browse on this site, cookies collect data to enhance your experience and personalize the content and advertising you see.
Visit our Privacy Policy to learn more. By continuing to use the site, you agree to this use of cookies and data.
  • In Portugal
  • List of Countries
  • For 7 days
  • Water Temperature
  • Satellite Maps
  • Weather Map
  • Weather Widgets
  • user-avatar
    Login

    Hourly Weather Osieczow

    Today, 19 November, Monday

    Time Temperature Precipitation Wind Pressure Humidity
    00:00 +1°C° 0.2 mm 2 mps 748 mmHg 86%
    01:00 +1°C° 0 mm 2 mps 748 mmHg 91%
    02:00 +1°C° 0.3 mm 2 mps 748 mmHg 91%
    03:00 +1°C° 0.3 mm 3 mps 748 mmHg 91%
    04:00 +1°C° 0.3 mm 3 mps 747 mmHg 91%
    05:00 0°C° 0.1 mm 4 mps 747 mmHg 91%
    06:00 0°C° 0.1 mm 4 mps 747 mmHg 91%
    07:00 +1°C° 0 mm 3 mps 747 mmHg 91%
    08:00 0°C° 0.1 mm 4 mps 747 mmHg 88%
    09:00 0°C° 0.1 mm 5 mps 747 mmHg 85%
    10:00 +1°C° 0.1 mm 5 mps 747 mmHg 81%
    11:00 +1°C° 0.1 mm 6 mps 747 mmHg 79%
    12:00 +1°C° 0.1 mm 6 mps 747 mmHg 77%
    13:00 +1°C° 0.1 mm 6 mps 747 mmHg 74%
    14:00 +1°C° 0 mm 6 mps 747 mmHg 75%
    15:00 0°C° 0 mm 5 mps 747 mmHg 75%
    16:00 0°C° 0 mm 5 mps 747 mmHg 75%
    17:00 0°C° 0 mm 5 mps 747 mmHg 75%
    18:00 -2°C° 0 mm 6 mps 747 mmHg 76%
    19:00 -2°C° 0 mm 6 mps 747 mmHg 76%
    20:00 -2°C° 0 mm 6 mps 747 mmHg 77%
    21:00 -3°C° 0 mm 6 mps 747 mmHg 77%
    22:00 -2°C° 0 mm 5 mps 748 mmHg 78%
    23:00 -4°C° 0 mm 5 mps 747 mmHg 79%

    Tomorrow, 20 November, Tuesday

    Time Temperature Precipitation Wind Pressure Humidity
    00:00 -4°C° 0 mm 5 mps 747 mmHg 80%
    01:00 -4°C° 0 mm 5 mps 747 mmHg 81%
    02:00 -4°C° 0 mm 5 mps 747 mmHg 81%
    03:00 -4°C° 0 mm 6 mps 746 mmHg 81%
    04:00 -4°C° 0 mm 6 mps 746 mmHg 81%
    05:00 -4°C° 0 mm 6 mps 746 mmHg 81%
    06:00 -4°C° 0 mm 5 mps 746 mmHg 81%
    07:00 -4°C° 0 mm 5 mps 746 mmHg 81%
    08:00 -3°C° 0 mm 6 mps 745 mmHg 79%
    09:00 -3°C° 0 mm 6 mps 745 mmHg 77%
    10:00 -2°C° 0 mm 7 mps 745 mmHg 75%
    11:00 -2°C° 0 mm 7 mps 744 mmHg 74%
    12:00 -1°C° 0 mm 7 mps 744 mmHg 73%
    13:00 -1°C° 0 mm 7 mps 744 mmHg 71%
    14:00 -1°C° 0.2 mm 6 mps 743 mmHg 72%
    15:00 -1°C° 0.2 mm 6 mps 743 mmHg 73%
    16:00 -1°C° 0.2 mm 6 mps 743 mmHg 74%
    17:00 0°C° 0.3 mm 5 mps 743 mmHg 76%
    18:00 0°C° 0.3 mm 5 mps 743 mmHg 78%
    19:00 0°C° 0.3 mm 5 mps 743 mmHg 79%
    20:00 0°C° 0.1 mm 5 mps 744 mmHg 81%
    21:00 -1°C° 0.1 mm 5 mps 744 mmHg 83%
    22:00 -1°C° 0.1 mm 4 mps 744 mmHg 84%
    23:00 -1°C° 0 mm 4 mps 744 mmHg 86%

    Day after tomorrow, 21 November, Wednesday

    Time Temperature Precipitation Wind Pressure Humidity
    00:00 -1°C° 0 mm 4 mps 745 mmHg 87%
    01:00 0°C° 0 mm 3 mps 745 mmHg 89%
    02:00 0°C° 0 mm 3 mps 745 mmHg 89%
    03:00 0°C° 0 mm 3 mps 745 mmHg 90%
    04:00 0°C° 0 mm 3 mps 745 mmHg 90%
    05:00 0°C° 0 mm 3 mps 746 mmHg 90%
    06:00 0°C° 0 mm 3 mps 746 mmHg 91%
    07:00 0°C° 0 mm 3 mps 746 mmHg 91%
    08:00 +1°C° 0 mm 3 mps 747 mmHg 90%
    09:00 0°C° 0 mm 4 mps 747 mmHg 88%
    10:00 0°C° 0 mm 4 mps 747 mmHg 87%
    11:00 +1°C° 0 mm 4 mps 748 mmHg 86%
    12:00 +1°C° 0 mm 4 mps 748 mmHg 85%
    13:00 +1°C° 0 mm 4 mps 748 mmHg 84%
    14:00 +1°C° 0 mm 4 mps 748 mmHg 85%
    15:00 +1°C° 0 mm 4 mps 748 mmHg 85%
    16:00 0°C° 0 mm 4 mps 748 mmHg 86%
    17:00 0°C° 0 mm 4 mps 748 mmHg 86%
    18:00 0°C° 0 mm 4 mps 749 mmHg 87%
    19:00 0°C° 0 mm 4 mps 749 mmHg 87%
    20:00 -1°C° 0 mm 4 mps 749 mmHg 87%
    21:00 -1°C° 0 mm 4 mps 749 mmHg 87%
    22:00 -1°C° 0 mm 4 mps 749 mmHg 87%
    23:00 -1°C° 0 mm 4 mps 749 mmHg 87%

    22 November, Thursday

    Time Temperature Precipitation Wind Pressure Humidity
    00:00 -1°C° 0 mm 4 mps 749 mmHg 86%
    01:00 -1°C° 0 mm 4 mps 750 mmHg 86%
    02:00 -2°C° 0 mm 4 mps 749 mmHg 87%
    03:00 -2°C° 0 mm 4 mps 749 mmHg 87%
    04:00 -3°C° 0 mm 4 mps 749 mmHg 88%
    05:00 -3°C° 0 mm 4 mps 749 mmHg 88%
    06:00 -2°C° 0 mm 3 mps 750 mmHg 88%
    07:00 -2°C° 0 mm 3 mps 750 mmHg 89%
    08:00 -2°C° 0 mm 3 mps 750 mmHg 85%
    09:00 -1°C° 0 mm 3 mps 750 mmHg 82%
    10:00 0°C° 0 mm 3 mps 750 mmHg 79%
    11:00 +1°C° 0 mm 3 mps 750 mmHg 78%
    12:00 +1°C° 0 mm 3 mps 750 mmHg 77%
    13:00 +2°C° 0 mm 3 mps 750 mmHg 76%
    14:00 +2°C° 0 mm 3 mps 750 mmHg 79%
    15:00 +1°C° 0 mm 3 mps 750 mmHg 83%
    16:00 +1°C° 0 mm 2 mps 750 mmHg 87%
    17:00 +1°C° 0 mm 2 mps 750 mmHg 88%
    18:00 +1°C° 0 mm 2 mps 751 mmHg 89%
    19:00 +1°C° 0 mm 2 mps 751 mmHg 90%
    20:00 +1°C° 0 mm 2 mps 751 mmHg 91%
    21:00 +1°C° 0 mm 2 mps 751 mmHg 91%
    22:00 +1°C° 0 mm 2 mps 751 mmHg 91%
    23:00 +1°C° 0 mm 2 mps 751 mmHg 92%

    23 November, Friday

    Time Temperature Precipitation Wind Pressure Humidity
    00:00 +1°C° 0 mm 2 mps 751 mmHg 92%
    01:00 +1°C° 0 mm 2 mps 751 mmHg 92%
    02:00 +1°C° 0 mm 2 mps 751 mmHg 92%
    03:00 +1°C° 0 mm 2 mps 751 mmHg 92%
    04:00 +1°C° 0 mm 2 mps 751 mmHg 92%
    05:00 +1°C° 0 mm 2 mps 751 mmHg 92%
    06:00 +1°C° 0 mm 2 mps 752 mmHg 92%
    07:00 +1°C° 0 mm 2 mps 752 mmHg 92%
    08:00 +2°C° 0 mm 2 mps 752 mmHg 89%
    09:00 +3°C° 0 mm 2 mps 752 mmHg 86%
    10:00 +4°C° 0 mm 2 mps 752 mmHg 83%
    11:00 +5°C° 0 mm 2 mps 752 mmHg 81%
    12:00 +6°C° 0 mm 2 mps 752 mmHg 79%
    13:00 +7°C° 0 mm 2 mps 752 mmHg 78%
    14:00 +6°C° 0 mm 2 mps 751 mmHg 82%
    15:00 +5°C° 0 mm 2 mps 751 mmHg 86%
    16:00 +4°C° 0 mm 2 mps 751 mmHg 90%
    17:00 +4°C° 0 mm 2 mps 751 mmHg 91%
    18:00 +4°C° 0 mm 2 mps 751 mmHg 92%
    19:00 +3°C° 0 mm 2 mps 751 mmHg 92%
    20:00 +3°C° 0 mm 2 mps 750 mmHg 92%
    21:00 +3°C° 0 mm 2 mps 750 mmHg 92%
    22:00 +3°C° 0 mm 2 mps 750 mmHg 92%
    23:00 +3°C° 0 mm 2 mps 750 mmHg 92%

    24 November, Saturday

    Time Temperature Precipitation Wind Pressure Humidity
    00:00 +3°C° 0 mm 2 mps 750 mmHg 92%
    01:00 +3°C° 0 mm 2 mps 749 mmHg 92%
    02:00 +2°C° 0 mm 2 mps 749 mmHg 92%
    03:00 +2°C° 0 mm 2 mps 749 mmHg 92%
    04:00 +2°C° 0 mm 2 mps 748 mmHg 92%
    05:00 +2°C° 0 mm 2 mps 748 mmHg 92%
    06:00 +2°C° 0 mm 2 mps 748 mmHg 92%
    07:00 +2°C° 0 mm 2 mps 748 mmHg 91%
    08:00 +3°C° 0 mm 2 mps 748 mmHg 88%
    09:00 +4°C° 0 mm 2 mps 748 mmHg 86%
    10:00 +5°C° 0 mm 2 mps 747 mmHg 83%
    11:00 +5°C° 0 mm 2 mps 747 mmHg 81%
    12:00 +6°C° 0 mm 2 mps 747 mmHg 80%
    13:00 +7°C° 0 mm 1 mps 747 mmHg 79%
    14:00 +7°C° 0.1 mm 1 mps 747 mmHg 82%
    15:00 +6°C° 0.1 mm 1 mps 746 mmHg 85%
    16:00 +5°C° 0.1 mm 1 mps 746 mmHg 88%
    17:00 +5°C° 0.1 mm 1 mps 746 mmHg 89%
    18:00 +5°C° 0.1 mm 1 mps 746 mmHg 90%
    19:00 +5°C° 0.1 mm 1 mps 746 mmHg 90%
    20:00 +5°C° 0.1 mm 1 mps 746 mmHg 91%
    21:00 +5°C° 0.1 mm 1 mps 746 mmHg 92%
    22:00 +5°C° 0.1 mm 1 mps 746 mmHg 92%
    23:00 +4°C° 0 mm 2 mps 747 mmHg 93%
    Show more